Regional Weather Roundup
Issued by NWS

Home | Current Version | Previous Version | Graphics & Text | Print | Product List | Glossary On
Versions: 1 2 3 4 5 6 7 8 9 10 11 12 13 14 15 16 17 18 19 20 21 22 23 24 25 26 27
000
ASUS45 KBOI 202110
RWRID

IDAHO REGIONAL WEATHER ROUNDUP
NATIONAL WEATHER SERVICE BOISE ID
300 PM MDT FRI OCT 20 2017

NOTE: "FAIR" INDICATES FEW OR NO CLOUDS BELOW 12000 FEET
WITH NO SIGNIFICANT WEATHER AND/OR OBSTRUCTIONS TO VISIBILITY

IDZ012-014-202200-
SOUTHWEST IDAHO


CITY           SKY/WX    TMP DP  RH WIND       PRES   REMARKS
BOISE          CLOUDY    51  33  50 W15G28    29.84R
CALDWELL       CLOUDY    55  32  41 W16G24    29.83R
MOUNTAIN HOME  PTSUNNY   53  31  43 W25G31    29.83R
$$

IDZ016-017-202200-
SOUTHCENTRAL IDAHO


CITY           SKY/WX    TMP DP  RH WIND       PRES   REMARKS
BURLEY         LGT RAIN  37  34  89 W20G33    29.83R FOG     WCI  27
JEROME         PTSUNNY   48  36  63 SW28G33   29.82R
TWIN FALLS     LGT RAIN  39  35  86 W15       29.84R WCI  31
$$

IDZ019>023-202200-
SOUTHEAST IDAHO


CITY           SKY/WX    TMP DP  RH WIND       PRES   REMARKS
IDAHO FALLS    PTSUNNY   44  30  57 SW39G53   29.66S
POCATELLO      PTSUNNY   46  31  55 SW33G49   29.78S
REXBURG        CLOUDY    42  29  59 SW29G39   29.67R
$$

IDZ006-010-011-018-031-032-202200-
CENTRAL IDAHO MOUNTAINS


CITY           SKY/WX    TMP DP  RH WIND       PRES   REMARKS
MCCALL         PTSUNNY   36  31  82 SE5       29.75R WCI  32
HAILEY         MOSUNNY   45  25  45 W8G20     29.72R
STANLEY          N/A     38  29  70 VRB5      29.74R WCI  34
SALMON         CLOUDY    43  33  68 S5        29.68R
CHALLIS        PTSUNNY   45  24  43 W7        29.67R
$$

IDZ002-004-006-007-026-202200-
NORTHERN IDAHO


CITY           SKY/WX    TMP DP  RH WIND       PRES   REMARKS
LEWISTON       MOSUNNY   58  35  42 SW16      29.72R
LOWELL           N/A     42  40  92 CALM      29.78R
COEUR D`ALENE  CLOUDY    47  39  74 SW12      29.66R
MULLAN PASS    SNOW      29  27  92 VRB5      29.59R VSB 1/4 WCI  24
$$




USA.gov is the U.S. government's official web portal to all federal, state and local government web resources and services.